StationID,Date,MaxTemp,MinTemp,Precipitation,Snowfall,SnowDepth
"USC00509693","1997-01-18",,,0.00,0.00,406.00
"USC00509693","1997-01-19",,,0.00,0.00,406.00
"USC00509693","1997-01-20",,,0.00,0.00,406.00
"USC00509693","1997-01-21",,,0.00,0.00,406.00
"USC00509693","1997-01-22",,,0.00,0.00,406.00
"USC00509693","1997-01-23",,,0.00,0.00,406.00
"USC00509693","1997-01-24",,,0.00,0.00,406.00
"USC00509693","1997-01-25",,,0.00,0.00,406.00
"USC00509693","1997-01-26",,,0.00,0.00,406.00
"USC00509693","1997-01-27",,,0.00,0.00,406.00
"USC00509693","1997-01-28",,,0.00,0.00,406.00
"USC00509693","1997-01-29",,,0.00,0.00,406.00
"USC00509693","1997-01-30",,,5.00,8.00,432.00
"USC00509693","1997-01-31",,,3.00,3.00,432.00
"USC00509693","1997-02-01",,,0.00,0.00,432.00
"USC00509693","1997-02-02",,,8.00,15.00,457.00
"USC00509693","1997-02-03",,,0.00,0.00,457.00
"USC00509693","1997-02-04",,,15.00,30.00,508.00
"USC00509693","1997-02-05",,,0.00,0.00,508.00
"USC00509693","1997-02-06",,,25.00,51.00,533.00
"USC00509693","1997-02-07",,,5.00,5.00,533.00
"USC00509693","1997-02-08",,,0.00,0.00,483.00
"USC00509693","1997-02-09",,,0.00,0.00,483.00
"USC00509693","1997-02-10",,,0.00,0.00,483.00
"USC00509693","1997-02-11",,,0.00,0.00,457.00
"USC00509693","1997-02-12",,,0.00,0.00,457.00
"USC00509693","1997-02-13",,,0.00,0.00,457.00
"USC00509693","1997-02-14",,,0.00,0.00,457.00
"USC00509693","1997-02-15",,,0.00,0.00,457.00
"USC00509693","1997-02-16",,,0.00,0.00,457.00
"USC00509693","1997-02-17",,,0.00,0.00,457.00
"USC00509693","1997-02-18",,,0.00,0.00,457.00
"USC00509693","1997-02-19",,,0.00,0.00,457.00
"USC00509693","1997-02-20",,,0.00,0.00,457.00
"USC00509693","1997-02-21",,,0.00,0.00,457.00
"USC00509693","1997-02-22",,,0.00,0.00,457.00
"USC00509693","1997-02-23",,,0.00,0.00,457.00
"USC00509693","1997-02-24",,,10.00,25.00,483.00
"USC00509693","1997-02-25",,,13.00,20.00,483.00
"USC00509693","1997-02-26",,,10.00,15.00,508.00
"USC00509693","1997-02-27",,,5.00,13.00,508.00
"USC00509693","1997-02-28",,,0.00,0.00,508.00
"USC00509693","1997-03-01",,,0.00,0.00,508.00
"USC00509693","1997-03-02",,,0.00,0.00,483.00
"USC00509693","1997-03-03",,,0.00,0.00,483.00
"USC00509693","1997-03-04",,,0.00,0.00,483.00
"USC00509693","1997-03-05",,,0.00,0.00,483.00
"USC00509693","1997-03-06",,,0.00,0.00,483.00
"USC00509693","1997-03-07",,,0.00,0.00,483.00
"USC00509693","1997-03-08",,,0.00,0.00,483.00
"USC00509693","1997-03-09",,,0.00,0.00,483.00
"USC00509693","1997-03-10",,,0.00,0.00,483.00
"USC00509693","1997-03-11",,,0.00,0.00,483.00
"USC00509693","1997-03-12",,,0.00,0.00,483.00
"USC00509693","1997-03-13",,,0.00,0.00,483.00
"USC00509693","1997-03-14",,,0.00,0.00,483.00
"USC00509693","1997-03-15",,,0.00,0.00,483.00
"USC00509693","1997-03-16",,,0.00,0.00,483.00
"USC00509693","1997-03-17",,,0.00,0.00,483.00
"USC00509693","1997-03-18",,,0.00,0.00,483.00
"USC00509693","1997-03-19",,,0.00,0.00,483.00
"USC00509693","1997-03-20",,,8.00,13.00,483.00
"USC00509693","1997-03-21",,,0.00,0.00,483.00
"USC00509693","1997-03-22",,,0.00,0.00,483.00
"USC00509693","1997-03-23",,,0.00,0.00,483.00
"USC00509693","1997-03-24",,,0.00,0.00,483.00
"USC00509693","1997-03-25",,,0.00,0.00,483.00
"USC00509693","1997-03-26",,,0.00,0.00,483.00
"USC00509693","1997-03-27",,,0.00,0.00,483.00
"USC00509693","1997-03-28",,,0.00,0.00,483.00
"USC00509693","1997-03-29",,,0.00,0.00,483.00
"USC00509693","1997-03-30",,,0.00,0.00,483.00
"USC00509693","1997-03-31",,,0.00,0.00,483.00
"USC00509693","1997-04-01",,,0.00,0.00,483.00
"USC00509693","1997-04-02",,,0.00,0.00,483.00
"USC00509693","1997-04-03",,,0.00,0.00,457.00
"USC00509693","1997-04-04",,,0.00,0.00,457.00
"USC00509693","1997-04-05",,,0.00,0.00,457.00
"USC00509693","1997-04-06",,,0.00,0.00,457.00
"USC00509693","1997-04-07",,,0.00,0.00,432.00
"USC00509693","1997-04-08",,,0.00,0.00,406.00
"USC00509693","1997-04-09",,,0.00,0.00,381.00
"USC00509693","1997-04-10",,,0.00,0.00,381.00
"USC00509693","1997-04-11",,,0.00,0.00,356.00
"USC00509693","1997-04-12",,,0.00,0.00,356.00
"USC00509693","1997-04-13",,,0.00,0.00,356.00
"USC00509693","1997-04-14",,,0.00,0.00,356.00
"USC00509693","1997-04-15",,,0.00,0.00,356.00
"USC00509693","1997-04-16",,,0.00,0.00,356.00
"USC00509693","1997-04-17",,,0.00,0.00,356.00
"USC00509693","1997-04-18",,,0.00,0.00,356.00
"USC00509693","1997-04-19",,,0.00,0.00,356.00
"USC00509693","1997-04-20",,,0.00,0.00,356.00
"USC00509693","1997-04-21",,,0.00,0.00,330.00
"USC00509693","1997-04-22",,,0.00,0.00,330.00
"USC00509693","1997-04-23",,,0.00,0.00,330.00
"USC00509693","1997-04-24",,,0.00,0.00,330.00
"USC00509693","1997-04-25",,,0.00,0.00,279.00
"USC00509693","1997-04-26",,,0.00,0.00,203.00
"USC00509693","1997-04-27",,,0.00,0.00,127.00
"USC00509693","1997-04-28",,,0.00,0.00,76.00
"USC00509693","1997-04-29",,,0.00,0.00,51.00
"USC00509693","1997-04-30",,,0.00,0.00,0.00
"USC00509693","1997-05-01",,,0.00,0.00,0.00
"USC00509693","1997-05-02",,,3.00,0.00,0.00
"USC00509693","1997-05-03",,,0.00,0.00,0.00
"USC00509693","1997-05-04",,,0.00,0.00,0.00
"USC00509693","1997-05-05",,,8.00,0.00,0.00
"USC00509693","1997-05-06",,,0.00,0.00,0.00
"USC00509693","1997-05-07",,,0.00,0.00,0.00
"USC00509693","1997-05-08",,,0.00,0.00,0.00
"USC00509693","1997-05-09",,,0.00,0.00,0.00
"USC00509693","1997-05-10",,,0.00,0.00,0.00
"USC00509693","1997-05-11",,,0.00,0.00,0.00
"USC00509693","1997-05-12",,,0.00,0.00,0.00
"USC00509693","1997-05-13",,,3.00,0.00,0.00
"USC00509693","1997-05-14",,,0.00,0.00,0.00
"USC00509693","1997-05-15",,,0.00,0.00,0.00
"USC00509693","1997-05-16",,,0.00,0.00,0.00
"USC00509693","1997-05-17",,,0.00,0.00,0.00
"USC00509693","1997-05-18",,,0.00,0.00,0.00
"USC00509693","1997-05-19",,,0.00,0.00,0.00
"USC00509693","1997-05-20",,,0.00,0.00,0.00
"USC00509693","1997-05-21",,,0.00,0.00,0.00
"USC00509693","1997-05-22",,,0.00,0.00,0.00
"USC00509693","1997-05-23",,,0.00,0.00,0.00
"USC00509693","1997-05-24",,,0.00,0.00,0.00
"USC00509693","1997-05-25",,,0.00,0.00,0.00
"USC00509693","1997-05-26",,,0.00,0.00,0.00
"USC00509693","1997-05-27",,,0.00,0.00,0.00
"USC00509693","1997-05-28",,,0.00,0.00,0.00
"USC00509693","1997-05-29",,,0.00,0.00,0.00
"USC00509693","1997-05-30",,,0.00,0.00,0.00
"USC00509693","1997-05-31",,,0.00,0.00,0.00
